Location: Northcutt
(34.7304°N, 84.4305°W)
Time: 09:38:43
(UTC+00:00)

A-11 Canister half - Pass Details

Date: 12 October 2022
Orbit: 1524 x 1685 km, 47.3° (Epoch: 30 November)

Event Time Altitude Azimuth Distance (km) Brightness Sun altitude
Rises 00:32:39 0° 305° (NW) 4,689 12.6 -18.2°
Reaches altitude 10° 00:35:40 10° 306° (NW) 3,716 11.9 -18.8°
Maximum altitude 00:45:06 87° 37° (NE) 1,573 8.9 -20.7°
Enters shadow 00:51:05 27° 125° (SE) 2,675 9.8 -22.0°
Drops below altitude 10° 00:54:50 10° 126° (SE) 3,821 - -22.7°
Sets 00:57:59 0° 127° (SE) 4,827 - -23.4°
